Location: Hurstbourne Priors
(51.2000°N, 1.3667°W)
Time: 18:59:15
(UTC+00:00)

Transit 4A - Pass Details

Date: 21 April 2021
Orbit: 870 x 974 km, 66.8° (Epoch: 09 May)

Event Time Altitude Azimuth Distance (km) Brightness Sun altitude
Rises 02:51:27 0° 283° (WNW) 3,593 - -17.2°
Exits shadow 02:51:38 - 284° (WNW) 3,537 10.6 -17.2°
Reaches altitude 10° 02:54:46 10° 300° (WNW) 2,630 10.1 -16.9°
Maximum altitude 02:59:09 20° 346° (NNW) 1,986 10.0 -16.4°
Drops below altitude 10° 03:03:27 10° 33° (NNE) 2,581 11.5 -15.9°
Sets 03:06:41 0° 50° (NE) 3,506 12.8 -15.5°
